When you browse on this site, cookies collect data to enhance your experience and personalize the content and advertising you see.
Visit our Privacy Policy to learn more. By continuing to use the site, you agree to this use of cookies and data.
  • In Lithuania
  • List of Countries
  • For 7 days
  • Water Temperature
  • Satellite Maps
  • Weather Map
  • Weather Widgets
  • user-avatar
    Login

    Hourly Weather Gorelki

    Today, 25 April, Thursday

    Time Temperature Precipitation Wind Pressure Humidity
    00:00 +10°C° 0 mm 5 mps 752 mmHg 64%
    01:00 +10°C° 0 mm 5 mps 752 mmHg 65%
    02:00 +11°C° 0 mm 4 mps 752 mmHg 68%
    03:00 +10°C° 0 mm 4 mps 752 mmHg 69%
    04:00 +10°C° 0 mm 4 mps 752 mmHg 70%
    05:00 +8°C° 0 mm 4 mps 752 mmHg 71%
    06:00 +9°C° 0 mm 5 mps 752 mmHg 69%
    07:00 +10°C° 0 mm 5 mps 752 mmHg 67%
    08:00 +13°C° 0 mm 5 mps 751 mmHg 66%
    09:00 +14°C° 0 mm 5 mps 751 mmHg 63%
    10:00 +16°C° 0 mm 5 mps 751 mmHg 60%
    11:00 +19°C° 0 mm 5 mps 751 mmHg 57%
    12:00 +20°C° 0 mm 5 mps 751 mmHg 55%
    13:00 +22°C° 0 mm 5 mps 751 mmHg 52%
    14:00 +23°C° 0 mm 5 mps 750 mmHg 50%
    15:00 +23°C° 0.3 mm 5 mps 750 mmHg 52%
    16:00 +22°C° 0.3 mm 5 mps 750 mmHg 55%
    17:00 +22°C° 0.3 mm 5 mps 750 mmHg 57%
    18:00 +20°C° 0.2 mm 4 mps 749 mmHg 65%
    19:00 +18°C° 0.2 mm 4 mps 749 mmHg 72%
    20:00 +17°C° 0.2 mm 3 mps 749 mmHg 79%
    21:00 +16°C° 0 mm 3 mps 749 mmHg 82%
    22:00 +14°C° 0 mm 3 mps 749 mmHg 84%
    23:00 +14°C° 0 mm 4 mps 749 mmHg 87%

    Tomorrow, 26 April, Friday

    Time Temperature Precipitation Wind Pressure Humidity
    00:00 +13°C° 0.3 mm 3 mps 749 mmHg 89%
    01:00 +13°C° 0.3 mm 3 mps 749 mmHg 92%
    02:00 +12°C° 0.3 mm 3 mps 749 mmHg 94%
    03:00 +12°C° 0.3 mm 3 mps 749 mmHg 95%
    04:00 +12°C° 0.3 mm 3 mps 748 mmHg 96%
    05:00 +11°C° 0.3 mm 3 mps 748 mmHg 96%
    06:00 +13°C° 0 mm 3 mps 748 mmHg 93%
    07:00 +14°C° 0 mm 4 mps 748 mmHg 89%
    08:00 +15°C° 0 mm 4 mps 748 mmHg 85%
    09:00 +18°C° 0 mm 4 mps 747 mmHg 79%
    10:00 +20°C° 0 mm 4 mps 747 mmHg 72%
    11:00 +22°C° 0 mm 4 mps 747 mmHg 65%
    12:00 +23°C° 0 mm 5 mps 747 mmHg 60%
    13:00 +25°C° 0 mm 5 mps 746 mmHg 55%
    14:00 +26°C° 0 mm 5 mps 746 mmHg 50%
    15:00 +26°C° 0.1 mm 5 mps 745 mmHg 52%
    16:00 +26°C° 0.1 mm 5 mps 745 mmHg 54%
    17:00 +25°C° 0.1 mm 5 mps 744 mmHg 55%
    18:00 +23°C° 0 mm 4 mps 744 mmHg 61%
    19:00 +21°C° 0 mm 4 mps 744 mmHg 67%
    20:00 +20°C° 0 mm 3 mps 744 mmHg 73%
    21:00 +19°C° 0.4 mm 4 mps 744 mmHg 78%
    22:00 +18°C° 0.4 mm 4 mps 744 mmHg 83%
    23:00 +15°C° 0.4 mm 4 mps 744 mmHg 89%

    Day after tomorrow, 27 April, Saturday

    Time Temperature Precipitation Wind Pressure Humidity
    00:00 +16°C° 0.3 mm 3 mps 743 mmHg 90%
    01:00 +16°C° 0.3 mm 3 mps 743 mmHg 91%
    02:00 +16°C° 0.3 mm 3 mps 743 mmHg 93%
    03:00 +14°C° 0.1 mm 3 mps 743 mmHg 93%
    04:00 +15°C° 0.1 mm 2 mps 743 mmHg 92%
    05:00 +15°C° 0.1 mm 2 mps 742 mmHg 92%
    06:00 +16°C° 0 mm 3 mps 742 mmHg 85%
    07:00 +17°C° 0 mm 4 mps 742 mmHg 78%
    08:00 +19°C° 0 mm 4 mps 742 mmHg 71%
    09:00 +20°C° 0 mm 5 mps 743 mmHg 68%
    10:00 +21°C° 0 mm 5 mps 743 mmHg 64%
    11:00 +22°C° 0 mm 6 mps 743 mmHg 60%
    12:00 +22°C° 0 mm 6 mps 743 mmHg 60%
    13:00 +23°C° 0 mm 6 mps 743 mmHg 59%
    14:00 +23°C° 0 mm 6 mps 743 mmHg 58%
    15:00 +22°C° 0 mm 6 mps 743 mmHg 60%
    16:00 +22°C° 0 mm 5 mps 742 mmHg 62%
    17:00 +21°C° 0 mm 5 mps 742 mmHg 63%
    18:00 +20°C° 0 mm 4 mps 743 mmHg 69%
    19:00 +18°C° 0 mm 4 mps 743 mmHg 74%
    20:00 +16°C° 0 mm 3 mps 743 mmHg 80%
    21:00 +16°C° 0 mm 3 mps 743 mmHg 82%
    22:00 +14°C° 0 mm 3 mps 743 mmHg 85%
    23:00 +13°C° 0 mm 3 mps 743 mmHg 88%

    28 April, Sunday

    Time Temperature Precipitation Wind Pressure Humidity
    00:00 +13°C° 0 mm 3 mps 743 mmHg 88%
    01:00 +12°C° 0 mm 3 mps 743 mmHg 88%
    02:00 +12°C° 0 mm 4 mps 743 mmHg 88%
    03:00 +12°C° 0 mm 3 mps 743 mmHg 91%
    04:00 +13°C° 0 mm 2 mps 743 mmHg 93%
    05:00 +12°C° 0 mm 2 mps 743 mmHg 96%
    06:00 +12°C° 0 mm 3 mps 743 mmHg 92%
    07:00 +12°C° 0 mm 3 mps 744 mmHg 88%
    08:00 +13°C° 0 mm 4 mps 744 mmHg 84%
    09:00 +14°C° 0 mm 3 mps 744 mmHg 79%
    10:00 +16°C° 0 mm 3 mps 744 mmHg 73%
    11:00 +18°C° 0 mm 3 mps 744 mmHg 68%
    12:00 +18°C° 0 mm 3 mps 744 mmHg 69%
    13:00 +17°C° 0 mm 4 mps 744 mmHg 70%
    14:00 +17°C° 0 mm 4 mps 743 mmHg 72%
    15:00 +17°C° 0 mm 4 mps 743 mmHg 73%
    16:00 +18°C° 0 mm 4 mps 743 mmHg 73%
    17:00 +18°C° 0 mm 4 mps 743 mmHg 74%
    18:00 +17°C° 0 mm 3 mps 743 mmHg 78%
    19:00 +16°C° 0 mm 3 mps 743 mmHg 82%
    20:00 +16°C° 0 mm 3 mps 744 mmHg 85%
    21:00 +14°C° 0.2 mm 4 mps 744 mmHg 86%
    22:00 +14°C° 0.2 mm 5 mps 744 mmHg 87%
    23:00 +13°C° 0.2 mm 6 mps 744 mmHg 87%

    29 April, Monday

    Time Temperature Precipitation Wind Pressure Humidity
    00:00 +13°C° 0.1 mm 6 mps 744 mmHg 87%
    01:00 +11°C° 0.1 mm 6 mps 745 mmHg 86%
    02:00 +11°C° 0.1 mm 6 mps 745 mmHg 86%
    03:00 +10°C° 0.1 mm 6 mps 745 mmHg 85%
    04:00 +10°C° 0.1 mm 6 mps 745 mmHg 85%
    05:00 +9°C° 0.1 mm 7 mps 745 mmHg 84%
    06:00 +9°C° 0.1 mm 7 mps 746 mmHg 80%
    07:00 +9°C° 0.1 mm 7 mps 746 mmHg 76%
    08:00 +8°C° 0.1 mm 7 mps 746 mmHg 72%
    09:00 +9°C° 0 mm 7 mps 747 mmHg 68%
    10:00 +9°C° 0 mm 7 mps 747 mmHg 64%
    11:00 +10°C° 0 mm 7 mps 747 mmHg 60%
    12:00 +11°C° 0 mm 7 mps 747 mmHg 58%
    13:00 +12°C° 0 mm 7 mps 747 mmHg 55%
    14:00 +14°C° 0 mm 7 mps 747 mmHg 52%
    15:00 +14°C° 0 mm 7 mps 747 mmHg 51%
    16:00 +14°C° 0 mm 7 mps 747 mmHg 51%
    17:00 +14°C° 0 mm 6 mps 747 mmHg 50%
    18:00 +11°C° 0 mm 6 mps 748 mmHg 52%
    19:00 +10°C° 0 mm 5 mps 748 mmHg 53%
    20:00 +9°C° 0 mm 5 mps 748 mmHg 55%
    21:00 +8°C° 0 mm 5 mps 748 mmHg 56%
    22:00 +7°C° 0 mm 5 mps 749 mmHg 57%
    23:00 +6°C° 0 mm 5 mps 749 mmHg 58%

    30 April, Tuesday

    Time Temperature Precipitation Wind Pressure Humidity
    00:00 +6°C° 0 mm 4 mps 749 mmHg 60%
    01:00 +5°C° 0 mm 4 mps 749 mmHg 62%
    02:00 +4°C° 0 mm 4 mps 749 mmHg 64%
    03:00 +4°C° 0 mm 4 mps 749 mmHg 66%
    04:00 +3°C° 0 mm 4 mps 749 mmHg 68%
    05:00 +3°C° 0 mm 4 mps 749 mmHg 70%
    06:00 +3°C° 0 mm 5 mps 749 mmHg 66%
    07:00 +6°C° 0 mm 5 mps 749 mmHg 62%
    08:00 +7°C° 0 mm 6 mps 749 mmHg 58%
    09:00 +8°C° 0 mm 6 mps 749 mmHg 54%
    10:00 +9°C° 0 mm 6 mps 749 mmHg 50%
    11:00 +11°C° 0 mm 6 mps 749 mmHg 47%
    12:00 +11°C° 0 mm 6 mps 749 mmHg 46%
    13:00 +13°C° 0 mm 6 mps 749 mmHg 45%
    14:00 +14°C° 0 mm 6 mps 748 mmHg 44%
    15:00 +14°C° 0 mm 6 mps 748 mmHg 45%
    16:00 +13°C° 0 mm 6 mps 748 mmHg 45%
    17:00 +13°C° 0 mm 5 mps 748 mmHg 46%
    18:00 +12°C° 0 mm 5 mps 749 mmHg 51%
    19:00 +10°C° 0 mm 4 mps 749 mmHg 56%
    20:00 +9°C° 0 mm 3 mps 749 mmHg 61%
    21:00 +8°C° 0 mm 3 mps 749 mmHg 62%
    22:00 +7°C° 0 mm 3 mps 749 mmHg 64%
    23:00 +7°C° 0 mm 3 mps 750 mmHg 66%
    Show more